STARLINK-1671 (46554 NORAD) Tracking and Keplerian Element Data

This shows tracking and keplerian element data for the satellite.

Feedback or suggestion? Click here.




ElementValue
Catalog46554
NameSTARLINK-1671
Epoch Orbit177
Epoch Day304.91667824
Epoch Year2020
RAAN321.9581
Inclination52.9997
Eccentricity0.0001227
Argument of Perigee68.3429
Mean Anonmoly183.8563
Mean Motion15.62752104
Decay Rate-4.12E-06
L11 46554U 20070Y 20304.91667824 -.00000412 00000-0 13325-5 0 9992
L22 46554 52.9997 321.9581 0001227 68.3429 183.8563 15.62752104 1772

Live tracking and technical data element details for STARLINK-1671 (NORAD 46554). STARLINK-1671 can be tracked NOW for your location showing map with azimuth and elevation plus other details from your city location.

Track the satellite on the map from your city or location and see movement details for azimuth, elevation, latitude, longitude, range, height, and movement on the map or in text.







IsCatalogInMostPopularTable: catalog: 46554, numindb: 3
Update: records affected: 1



GetName: 46554 STARLINK-1671

Hit Count: updated at: Sat, 31 Oct 2020 09:42:48 GMT